Regional Weather Roundup
Issued by NWS Binghamton, NY

Home | Current Version | Previous Version | Text Only | Print | Product List | Glossary On
Versions: 1 2 3 4 5 6 7 8 9 10 11 12 13 14 15 16 17 18 19 20 21 22 23 24 25 26 27 28
000
ASUS41 KBGM 251710
RWRBGM

REGIONAL WEATHER ROUNDUP
NATIONAL WEATHER SERVICE BINGHAMTON NY
100 PM EDT WED MAY 25 2016

Note: "fair" indicates few or no clouds below 12,000 feet with no
significant weather and/or obstructions to visibility.

* = Station(s) that does not report precipitation, such as rain,
snow, etc, also no thunder or fog.

NYZ009-015>018-022>025-036-037-044>046-055>057-062-251800
...Central New York...

CITY           SKY/WX    TMP DP  RH WIND       PRES   REMARKS
Binghamton     SUNNY     79  48  33 W10G18    30.10R
Cortland       FAIR      81  50  34 NW10G16   30.08R
Dansville      MOSUNNY   83  46  27 W13G24    30.07S
Elmira         MOSUNNY   83  47  28 NW6       30.06S
Ithaca         PTSUNNY   81  53  37 NW10      30.08R
Hamilton       MOSUNNY   84  46  26 NW13G20   30.06R
Hornell        CLOUDY    81  46  30 W12G24    30.13S
Monticello     SUNNY     79  46  31 W10       30.10F
Penn Yan       CLOUDY    83  47  28 W8G18     30.07S
Rome           SUNNY     80  51  36 W13       30.04R
Sidney         SUNNY     82  48  30 W10G20    30.07R
Syracuse       CLOUDY    79  49  34 NW12      30.04R
$$

PAZ038>040-043-044-047-048-072-251800
...Northeast Pennsylvania...

CITY           SKY/WX    TMP DP  RH WIND       PRES   REMARKS
Hazleton       SUNNY     79  45  29 NW8       30.17S
Scranton       SUNNY     82  48  30 W9        30.09F
$$
&&
KEY
WCI = Wind Chill Index
VSB = Visibility
HX  = Heat Index
$$




USA.gov is the U.S. government's official web portal to all federal, state and local government web resources and services.